CW3403 Weather Reports


time (UTC)temp
C
wind
direction
speed
KPH
gust
KPH
rain 1hr
cm
rain 24hr
cm
rain mn
cm
humidity
%
barometer
mb
20260507010206 11 312 0.0 0.0 0.00 0.89 0.89 59 1014.7
20260507005704 11 345 1.6 3.2 0.00 0.89 0.89 60 1014.6
20260507005200 11 299 0.0 1.6 0.00 0.89 0.89 60 1014.5
20260507004657 11 312 0.0 0.0 0.00 0.89 0.89 60 1014.7
20260507004154 11 312 0.0 0.0 0.00 0.89 0.89 59 1014.6
20260507003651 11 315 0.0 1.6 0.00 0.89 0.89 58 1014.6
20260507003151 11 347 1.6 3.2 0.00 0.89 0.89 58 1014.5
20260507002648 11 350 0.0 0.0 0.00 0.89 0.89 56 1014.1
20260507002143 12 311 0.0 0.0 0.00 0.89 0.89 58 1014.2
20260507001640 12 305 0.0 1.6 0.00 0.89 0.89 57 1014.2
20260507001138 12 350 1.6 1.6 0.00 0.89 0.89 56 1014.2
20260507000634 12 329 1.6 1.6 0.00 0.89 0.89 56 1013.9
20260507000129 12 351 3.2 3.2 0.00 0.89 0.89 54 1013.9
20260506235627 12 333 3.2 3.2 0.00 0.89 0.89 55 1013.8
20260506235127 12 2 3.2 4.8 0.00 0.89 0.89 53 1013.8
20260506234625 12 323 3.2 3.2 0.00 0.89 0.89 53 1013.8
20260506234122 12 348 3.2 3.2 0.00 0.89 0.89 53 1013.9
20260506233619 12 339 1.6 1.6 0.00 0.89 0.89 55 1014.1
20260506233116 12 311 1.6 3.2 0.00 0.89 0.89 54 1014.1
20260506232612 12 315 1.6 1.6 0.00 0.89 0.89 53 1014.2
20260506232107 12 307 4.8 4.8 0.00 0.89 0.89 52 1014.0
20260506231605 12 301 3.2 3.2 0.00 0.89 0.89 53 1014.1
20260506231103 13 329 3.2 3.2 0.00 0.89 0.89 53 1014.0
20260506230559 13 298 8.0 9.7 0.00 0.89 0.89 55 1014.1
20260506230056 13 320 3.2 3.2 0.00 0.89 0.89 55 1014.4
20260506225553 13 327 6.4 8.0 0.00 0.89 0.89 55 1014.5
20260506225049 13 336 3.2 3.2 0.00 0.89 0.89 54 1014.4
20260506224546 13 350 1.6 3.2 0.00 0.89 0.89 53 1014.5
20260506224043 13 329 4.8 4.8 0.00 0.89 0.89 52 1014.5
20260506223539 13 318 4.8 8.0 0.00 0.89 0.89 51 1014.6
20260506223036 13 293 8.0 9.7 0.00 0.89 0.89 52 1014.6
20260506222532 13 290 4.8 4.8 0.00 0.89 0.89 52 1014.6
20260506222029 13 310 3.2 3.2 0.00 0.89 0.89 51 1014.7
20260506221526 13 357 4.8 8.0 0.00 0.89 0.89 51 1014.3
20260506221024 13 340 4.8 4.8 0.00 0.89 0.89 50 1014.0
20260506220520 13 331 8.0 12.9 0.00 0.89 0.89 52 1013.9
20260506220016 13 336 3.2 4.8 0.00 0.89 0.89 52 1013.6
20260506215513 13 318 6.4 8.0 0.00 0.89 0.89 53 1013.9
20260506215008 13 350 6.4 9.7 0.00 0.89 0.89 53 1013.5
20260506214506 13 323 4.8 8.0 0.00 0.89 0.89 53 1013.6
20260506214003 13 355 4.8 4.8 0.00 0.89 0.89 55 1013.5
20260506213500 14 10 4.8 8.0 0.00 0.89 0.89 53 1013.3
20260506212957 14 329 4.8 4.8 0.00 0.89 0.89 53 1013.4
20260506212453 14 348 8.0 9.7 0.00 0.89 0.89 51 1013.2
20260506211948 15 320 3.2 3.2 0.00 0.89 0.89 52 1013.1
20260506211445 15 321 4.8 4.8 0.00 0.89 0.89 52 1013.0
20260506210942 15 356 8.0 9.7 0.00 0.89 0.89 52 1013.0
20260506210438 15 333 3.2 4.8 0.00 0.89 0.89 51 1013.4
20260506205936 15 302 1.6 1.6 0.00 0.89 0.89 52 1012.9
20260506205432 15 2 4.8 4.8 0.00 0.89 0.89 49 1013.3
20260506204928 15 269 1.6 1.6 0.00 0.89 0.89 53 1013.0
20260506204426 15 331 6.4 8.0 0.00 0.89 0.89 52 1013.0
20260506203923 15 341 8.0 11.3 0.00 0.89 0.89 51 1013.0
20260506203420 15 308 8.0 9.7 0.00 0.89 0.89 50 1013.0
20260506202917 15 343 9.7 12.9 0.00 0.89 0.89 51 1013.1
20260506202414 15 0 8.0 9.7 0.00 0.89 0.89 49 1013.1
20260506201911 15 304 3.2 3.2 0.00 0.89 0.89 51 1013.0
20260506201409 15 357 8.0 11.3 0.00 0.89 0.89 50 1013.0
20260506200905 15 353 4.8 4.8 0.00 0.89 0.89 52 1013.1
20260506200401 15 1 4.8 4.8 0.00 0.89 0.89 50 1013.3
20260506195857 15 281 4.8 8.0 0.00 0.89 0.89 48 1012.8
20260506195355 15 287 3.2 3.2 0.00 0.89 0.89 48 1012.8
20260506194851 15 269 3.2 3.2 0.00 0.89 0.89 49 1013.1
20260506194348 15 329 6.4 9.7 0.00 0.89 0.89 49 1013.0
20260506193846 15 348 4.8 4.8 0.00 0.89 0.89 50 1012.9
20260506193342 16 354 6.4 8.0 0.00 0.89 0.89 50 1012.8
20260506192838 15 294 3.2 8.0 0.00 0.89 0.89 50 1012.9
20260506192335 15 314 8.0 11.3 0.00 0.89 0.89 50 1012.8
20260506191832 15 314 6.4 8.0 0.00 0.89 0.89 50 1012.9
20260506191329 15 264 1.6 1.6 0.00 0.89 0.89 51 1012.9
20260506190826 15 328 4.8 4.8 0.00 0.89 0.89 49 1012.9
20260506190322 15 329 4.8 8.0 0.00 0.89 0.89 51 1013.1
20260506185819 15 324 4.8 4.8 0.00 0.89 0.89 50 1013.2
20260506185316 15 339 6.4 8.0 0.00 0.89 0.89 49 1013.1
20260506184813 15 320 8.0 11.3 0.00 0.89 0.89 50 1013.2
20260506184310 16 350 3.2 3.2 0.00 0.89 0.89 48 1013.1
20260506183807 15 276 1.6 1.6 0.00 0.89 0.89 51 1013.3
20260506183303 15 14 4.8 8.0 0.00 0.89 0.89 47 1013.2
20260506182800 15 302 0.0 1.6 0.00 0.89 0.89 51 1013.1
20260506182257 15 308 9.7 12.9 0.00 0.89 0.89 48 1013.3
20260506181755 15 281 4.8 4.8 0.00 0.89 0.89 47 1013.0
20260506181252 15 328 3.2 3.2 0.00 0.89 0.89 50 1013.1
20260506180749 15 313 1.6 3.2 0.00 0.89 0.89 50 1013.2
20260506180245 14 5 6.4 8.0 0.00 0.89 0.89 49 1013.4
20260506175741 14 344 4.8 8.0 0.00 0.89 0.89 48 1013.6
20260506175238 15 37 6.4 9.7 0.00 0.89 0.89 50 1013.3
20260506174736 15 7 6.4 9.7 0.00 0.89 0.89 54 1013.3
20260506174233 14 336 4.8 4.8 0.00 0.89 0.89 55 1013.2
20260506173731 15 7 9.7 12.9 0.00 0.89 0.89 53 1013.4
20260506173227 15 323 6.4 8.0 0.00 0.89 0.89 55 1013.6
20260506172724 15 310 1.6 3.2 0.00 0.89 0.89 57 1013.2
20260506172221 14 310 6.4 11.3 0.00 0.89 0.89 58 1013.6
20260506171718 14 346 4.8 4.8 0.00 0.89 0.89 59 1013.1
20260506171216 13 295 1.6 3.2 0.00 0.89 0.89 58 1013.1
20260506170713 14 341 4.8 4.8 0.00 0.89 0.89 58 1013.2
20260506170210 13 351 8.0 9.7 0.00 0.89 0.89 62 1013.3
20260506165708 13 276 4.8 4.8 0.00 0.89 0.89 61 1013.3
20260506165204 14 309 8.0 11.3 0.00 0.89 0.89 59 1013.4
20260506164702 13 328 3.2 3.2 0.00 0.89 0.89 64 1013.7
20260506164159 14 310 4.8 8.0 0.00 0.89 0.89 63 1013.5
20260506163655 14 302 6.4 11.3 0.00 0.89 0.89 64 1013.5
20260506163150 13 315 1.6 1.6 0.00 0.89 0.89 63 1013.2
20260506162646 13 323 3.2 3.2 0.00 0.89 0.89 64 1013.1
20260506162144 13 310 8.0 11.3 0.00 0.89 0.89 65 1012.9
20260506161641 13 299 1.6 1.6 0.00 0.89 0.89 71 1012.8
20260506161138 13 352 4.8 4.8 0.00 0.89 0.89 70 1013.0
20260506160636 13 327 6.4 9.7 0.00 0.89 0.89 72 1013.0
20260506160132 13 357 4.8 4.8 0.00 0.89 0.89 71 1012.9
20260506155631 13 310 6.4 8.0 0.00 0.89 0.89 69 1013.2
20260506155128 12 11 3.2 4.8 0.00 0.89 0.89 74 1012.9
20260506153230 12 357 11.3 12.9 0.00 0.89 0.89 73 1012.6
20260506152726 12 2 4.8 4.8 0.00 0.89 0.89 75 1012.6
20260506152224 11 297 6.4 9.7 0.00 0.89 0.89 76 1012.6
20260506151723 11 304 8.0 11.3 0.00 0.89 0.89 77 1012.7
20260506151219 11 298 1.6 1.6 0.00 0.89 0.89 80 1012.9
20260506150715 11 298 0.0 1.6 0.00 0.89 0.89 82 1012.8
20260506150213 11 325 3.2 3.2 0.00 0.89 0.89 82 1012.6
20260506145710 11 277 6.4 11.3 0.00 0.89 0.89 81 1012.4
20260506145206 11 298 9.7 11.3 0.00 0.89 0.89 78 1012.6
20260506144704 11 334 8.0 9.7 0.00 0.89 0.89 79 1012.5
20260506144200 11 331 3.2 4.8 0.00 0.89 0.89 80 1012.4
20260506143658 11 310 4.8 4.8 0.00 0.89 0.89 81 1012.4
20260506143156 11 346 1.6 3.2 0.00 0.89 0.89 81 1011.8
20260506142654 11 340 4.8 4.8 0.00 0.89 0.89 81 1012.3
20260506142152 10 355 3.2 3.2 0.00 0.89 0.89 83 1012.1
20260506141649 10 324 4.8 4.8 0.00 0.89 0.89 84 1011.9
20260506141147 10 357 6.4 9.7 0.00 0.89 0.89 84 1012.2
20260506140644 10 299 3.2 3.2 0.00 0.89 0.89 86 1011.8
20260506140142 10 326 1.6 1.6 0.00 0.89 0.89 86 1011.9
20260506135639 10 310 1.6 3.2 0.00 0.89 0.89 86 1011.5
20260506135135 10 312 3.2 3.2 0.00 0.89 0.89 88 1011.3
20260506134631 10 37 3.2 3.2 0.00 0.89 0.89 89 1011.4
20260506134127 10 322 1.6 1.6 0.00 0.89 0.89 91 1011.3
20260506133625 9 330 6.4 8.0 0.00 0.89 0.89 90 1011.5
20260506133121 9 356 3.2 3.2 0.00 0.89 0.89 90 1011.4
20260506132619 9 322 1.6 1.6 0.00 0.89 0.89 93 1011.4
20260506132116 8 338 4.8 4.8 0.00 0.89 0.89 92 1011.1
20260506131613 8 347 3.2 3.2 0.00 0.89 0.89 94 1011.3
20260506131109 8 10 4.8 4.8 0.00 0.89 0.89 95 1011.4
20260506130607 8 334 3.2 3.2 0.00 0.89 0.89 95 1011.3
20260506130104 8 322 3.2 3.2 0.00 0.89 0.89 96 1011.2
20260506125602 8 338 1.6 3.2 0.00 0.89 0.89 97 1011.3
20260506125059 9 333 3.2 3.2 0.00 0.89 0.89 98 1011.3
20260506124557 8 313 1.6 3.2 0.00 0.89 0.89 98 1011.1
20260506124055 8 320 3.2 3.2 0.00 0.89 0.89 99 1010.8
20260506123552 8 21 0.0 1.6 0.00 0.89 0.89 99 1010.9
20260506123051 7 327 1.6 3.2 0.00 0.89 0.89 99 1010.8
20260506122546 7 353 4.8 4.8 0.00 0.89 0.89 99 1010.4
20260506122045 7 337 1.6 1.6 0.00 0.89 0.89 99 1010.7
20260506121542 7 330 3.2 3.2 0.00 0.89 0.89 99 1010.9
20260506121038 7 333 3.2 3.2 0.00 0.89 0.89 99 1011.0
20260506120536 7 340 3.2 3.2 0.00 0.89 0.89 99 1010.8
20260506120033 7 348 3.2 4.8 0.00 0.89 0.89 99 1010.4
20260506115531 7 327 4.8 4.8 0.00 0.89 0.89 99 1010.4
20260506115030 7 354 4.8 4.8 0.00 0.89 0.89 99 1010.6
20260506114526 7 352 8.0 9.7 0.00 0.89 0.89 99 1010.1
20260506114025 7 345 6.4 8.0 0.00 0.89 0.89 99 1010.4
20260506113522 7 329 3.2 3.2 0.00 0.89 0.89 99 1009.8
20260506113020 7 353 4.8 8.0 0.00 0.89 0.89 99 1009.7
20260506112516 8 335 6.4 8.0 0.00 0.89 0.89 99 1009.5
20260506112014 8 328 3.2 3.2 0.00 0.89 0.89 99 1009.4
20260506111512 8 329 3.2 4.8 0.00 0.89 0.89 98 1009.2
20260506111008 8 355 4.8 4.8 0.00 0.89 0.89 98 1009.2
20260506110506 8 348 3.2 4.8 0.00 0.89 0.89 98 1009.0
20260506110003 8 354 4.8 4.8 0.00 0.89 0.89 98 1008.9
20260506105459 8 332 3.2 3.2 0.00 0.89 0.89 98 1009.0
20260506104956 8 348 4.8 8.0 0.00 0.89 0.89 98 1009.5
20260506104454 8 325 3.2 3.2 0.00 0.89 0.89 98 1009.2
20260506103952 8 340 4.8 4.8 0.00 0.89 0.89 99 1009.1
20260506103449 8 321 3.2 3.2 0.00 0.89 0.89 99 1009.2
20260506102946 8 337 1.6 3.2 0.00 0.89 0.89 99 1008.9
20260506102444 8 343 4.8 4.8 0.00 0.89 0.89 99 1008.3
20260506101941 8 16 6.4 9.7 0.00 0.89 0.89 99 1008.5
20260506101437 8 5 1.6 1.6 0.00 0.89 0.89 99 1008.5
20260506100935 8 313 3.2 3.2 0.00 0.89 0.89 99 1007.8
20260506100433 8 318 1.6 1.6 0.13 0.89 0.89 99 1008.2
20260506095931 9 349 6.4 9.7 0.13 0.89 0.89 99 1008.0
20260506095429 9 338 3.2 3.2 0.00 0.89 0.89 99 1008.3
20260506094925 9 331 4.8 8.0 0.00 0.89 0.89 99 1007.9
20260506094424 9 11 4.8 4.8 0.00 0.89 0.89 99 1008.2
20260506093921 10 320 6.4 9.7 0.00 0.89 0.89 99 1007.8
20260506093419 10 334 4.8 4.8 0.00 0.89 0.89 99 1008.3
20260506092916 10 345 3.2 4.8 0.00 0.89 0.89 99 1008.3
20260506092414 10 342 4.8 8.0 0.00 0.89 0.89 99 1008.0
20260506091910 10 333 4.8 8.0 0.00 0.89 0.89 99 1007.7
20260506091408 10 333 3.2 3.2 0.18 0.89 0.89 99 1007.6
20260506090905 10 302 0.0 1.6 0.30 0.89 0.89 99 1007.5
20260506090403 10 339 3.2 3.2 0.43 0.86 0.86 99 1008.0
20260506085859 10 10 6.4 9.7 0.48 0.84 0.84 99 1008.0
20260506085356 10 335 4.8 4.8 0.30 0.79 0.79 99 1008.2
20260506084852 10 335 1.6 3.2 0.18 0.74 0.74 99 1008.1
20260506084349 10 317 3.2 3.2 0.18 0.74 0.74 99 1008.0
20260506083846 10 316 1.6 3.2 0.00 0.71 0.71 99 1008.0
20260506083343 10 351 4.8 8.0 0.00 0.71 0.71 99 1008.0
20260506082841 10 282 1.6 3.2 0.13 0.71 0.71 99 1007.9
20260506082337 11 312 1.6 1.6 0.18 0.69 0.69 99 1007.7
20260506081833 11 317 1.6 1.6 0.30 0.69 0.69 99 1007.5
20260506081331 11 312 1.6 1.6 0.13 0.66 0.66 99 1007.6
20260506080829 11 306 0.0 1.6 0.13 0.66 0.66 99 1007.2
20260506080325 11 299 0.0 1.6 0.00 0.64 0.64 99 1007.2
20260506073309 11 319 3.2 3.2 0.30 0.61 0.61 99 1007.2
20260506072806 12 297 3.2 3.2 0.30 0.58 0.58 99 1007.0
20260506072305 13 337 6.4 9.7 0.30 0.56 0.56 99 1007.0
20260506071801 14 308 4.8 4.8 0.48 0.53 0.53 99 1006.9
20260506071259 14 135 0.0 1.6 0.30 0.51 0.51 99 1006.8
20260506070756 14 255 0.0 0.0 0.13 0.46 0.46 99 1006.9
20260506070253 14 169 3.2 3.2 0.13 0.46 0.46 99 1006.7
20260506062230 14 222 0.0 0.0 0.30 0.30 0.30 99 1007.3
20260506061725 14 179 3.2 3.2 0.18 0.28 0.28 99 1007.2
20260506061223 14 220 1.6 3.2 0.13 0.25 0.25 99 1007.1
20260506060722 14 156 3.2 4.8 0.30 0.25 0.25 99 1007.1
20260506060218 14 267 0.0 0.0 0.36 0.23 0.23 99 1007.3
20260506051150 14 215 0.0 1.6 0.00 0.03 0.03 99 1008.0
20260506050649 14 255 0.0 0.0 0.00 0.03 0.03 99 1008.0
20260506050145 14 259 0.0 0.0 0.00 0.03 0.03 99 1007.8
20260506044636 14 232 0.0 1.6 0.00 0.03 0.03 99 1008.1
20260506044133 14 254 0.0 0.0 0.00 0.03 0.03 99 1008.3
20260506043630 14 258 0.0 0.0 0.00 0.03 0.03 99 1008.2
20260506043128 14 235 0.0 1.6 0.00 0.03 0.03 99 1008.3
20260506042627 14 253 0.0 0.0 0.00 0.03 0.03 99 1008.1
20260506042125 14 182 1.6 1.6 0.00 0.03 0.03 99 1008.3
20260506041623 15 128 1.6 1.6 0.00 0.03 0.03 99 1008.5
20260506041119 15 236 0.0 0.0 0.13 0.03 0.03 99 1008.6
20260506040617 15 239 0.0 0.0 0.13 0.03 0.03 99 1008.8
20260506040114 15 239 0.0 0.0 0.18 0.58 0.58 99 1008.9
20260506035611 15 250 0.0 0.0 0.30 0.58 0.58 99 1009.0
20260506035107 15 241 0.0 0.0 0.43 0.56 0.56 99 1009.1
20260506034605 15 222 1.6 1.6 0.61 0.53 0.53 99 1009.2
20260506034101 15 239 0.0 0.0 0.48 0.48 0.48 99 1009.5
20260506033559 15 256 0.0 0.0 0.30 0.43 0.43 99 1009.3
20260506033055 15 242 0.0 1.6 0.30 0.41 0.41 99 1009.3
20260506032553 15 219 1.6 1.6 0.18 0.38 0.38 99 1009.4
20260506032050 15 261 0.0 0.0 0.00 0.36 0.36 99 1009.4
20260506031547 15 265 0.0 0.0 0.13 0.36 0.36 99 1009.5
20260506031044 15 240 0.0 0.0 0.13 0.36 0.36 99 1009.5
20260506030542 15 240 0.0 0.0 0.18 0.33 0.33 99 1009.4
20260506030039 15 216 0.0 1.6 0.30 0.33 0.33 99 1009.6
20260506025536 15 257 0.0 0.0 0.18 0.28 0.28 99 1009.3
20260506025032 15 294 0.0 0.0 0.30 0.28 0.28 99 1009.3
20260506024529 15 295 0.0 0.0 0.30 0.25 0.25 99 1009.3
20260506024025 15 303 0.0 0.0 0.30 0.25 0.25 99 1009.3
20260506023522 15 305 0.0 0.0 0.13 0.20 0.20 99 1009.7
20260506023020 15 310 0.0 0.0 0.18 0.18 0.18 99 1009.3
20260506022517 15 310 0.0 0.0 0.18 0.18 0.18 99 1009.4
20260506022014 15 311 0.0 0.0 0.18 0.18 0.18 99 1009.1
20260506021512 15 312 0.0 0.0 0.13 0.15 0.15 99 1009.1
20260506021009 15 314 0.0 0.0 0.13 0.15 0.15 98 1009.3
20260506020506 15 315 0.0 0.0 0.00 0.13 0.13 98 1009.0
20260506020003 15 316 1.6 1.6 0.18 0.13 0.13 98 1009.1
20260506015501 15 296 0.0 0.0 0.18 0.13 0.13 98 1009.0
20260506014957 15 295 0.0 0.0 0.00 0.10 0.10 98 1008.8
20260506014454 15 277 0.0 0.0 0.13 0.10 0.10 98 1009.2
20260506013950 15 277 0.0 0.0 0.13 0.10 0.10 98 1008.9
20260506013449 15 270 0.0 0.0 0.00 0.08 0.08 97 1009.1
20260506012944 15 277 0.0 0.0 0.00 0.08 0.08 97 1008.8
20260506012441 15 277 0.0 0.0 0.00 0.08 0.08 97 1008.6
20260506011938 15 266 0.0 0.0 0.00 0.08 0.08 97 1009.0
20260506011436 15 264 0.0 0.0 0.00 0.08 0.08 96 1009.1
20260506010932 15 274 0.0 0.0 0.00 0.08 0.08 96 1008.9